Live-Position
3D-Globus wird geladen...
Über Starlink 2334
Group: 3 satellites
Beschreibung wird geladen...
Nächste Überflüge
Passes for default location (London). Set your location on the main map for personalized predictions.
Höhenverlauf
Loading altitude history...
No altitude history available
Zweizeiliger Elementsatz
1 47792U 21018F 26122.16670139 .00072246 00000-0 25042-2 0 9993
2 47792 53.1447 350.4886 0001638 86.9963 75.1766 15.29192844 5774
Epoch: 2. Mai 2026 •
Age: 10 hours
Aktueller Status
Höhe 497.0 km
Geschwindigkeit 7.62 km/s
Subsatellitenpunkt -51.67°S,
151.5°W
Startdatum 11. März 2021
Alter 5.1 years
Typ internet
Startgruppe
Falcon 9 •
Launch 20 •
47 satellites
Starlink 2257
47787
Starlink 2314 47788
Starlink 2315 47789
Starlink 2319 47790
Starlink 2322 47791
Starlink 2338 47793
Starlink 2373 47796
Starlink 2377 47797
Starlink 2379 47798
Starlink 2380 47799
Starlink 2381 47800
Starlink 2383 47802
Starlink 2385 47804
Starlink 2386 47805
Starlink 2387 47806
Starlink 2388 47807
Starlink 2389 47808
Starlink 2391 47810
Starlink 2395 47814
Starlink 2396 47815
...and 26 more
Technische Details
Klassifizierung Payload
Masse 260.00 kg
Trockenmasse 248.00 kg
Gesamtmasse 260.00 kg
Länge 0.20 m
Durchmesser 2.80 m
Spannweite 9.00 m
Form Box + pan
Hersteller SPXS
Bus-Typ Starlink
Phasenstatus In Orbit
Besitzer/Staat SPXS/US
Most Searched
Loading...